N0DNE Weather Reports


time (UTC)temp
C
wind
direction
speed
KPH
gust
KPH
rain 1hr
cm
rain 24hr
cm
rain mn
cm
humidity
%
barometer
mb
20260506035523 19 0 0.0 1.6 0.00 0.00 0.00 30 1009.8
20260506035021 19 0 0.0 1.6 0.00 0.00 0.00 30 1009.6
20260506034559 19 0 0.0 0.0 0.00 0.00 0.00 31 1009.7
20260506034021 19 0 0.0 0.0 0.00 0.00 0.00 30 1009.5
20260506033520 20 0 0.0 0.0 0.00 0.00 0.00 31 1009.5
20260506033041 20 0 0.0 0.0 0.00 0.00 0.00 31 1009.5
20260506032522 20 0 0.0 0.0 0.00 0.00 0.00 31 1009.5
20260506032023 20 0 0.0 0.0 0.00 0.00 0.00 30 1009.3
20260506031548 21 0 0.0 1.6 0.00 0.00 0.00 29 1009.2
20260506031023 21 0 0.0 8.0 0.00 0.00 0.00 29 1009.0
20260506030522 21 0 0.0 8.0 0.00 0.00 0.00 29 1009.0
20260506030037 21 0 0.0 4.8 0.00 0.00 0.00 28 1008.8
20260506025521 21 0 0.0 4.8 0.00 0.00 0.00 28 1008.8
20260506025024 21 0 0.0 3.2 0.00 0.00 0.00 28 1008.7
20260506024538 22 0 0.0 3.2 0.00 0.00 0.00 28 1008.6
20260506024021 22 0 0.0 6.4 0.00 0.00 0.00 27 1008.6
20260506023520 22 0 0.0 6.4 0.00 0.00 0.00 27 1008.5
20260506023053 22 0 0.0 4.8 0.00 0.00 0.00 26 1008.3
20260506022522 22 0 0.0 4.8 0.00 0.00 0.00 26 1008.3
20260506022020 22 0 0.0 1.6 0.00 0.00 0.00 26 1008.2
20260506021541 23 0 0.0 8.0 0.00 0.00 0.00 26 1008.1
20260506021021 23 0 0.0 8.0 0.00 0.00 0.00 26 1008.1
20260506020519 23 316 0.0 8.0 0.00 0.00 0.00 26 1008.1
20260506020040 23 0 0.0 11.3 0.00 0.00 0.00 26 1008.1
20260506015521 23 0 0.0 11.3 0.00 0.00 0.00 26 1007.9
20260506015023 23 0 0.0 11.3 0.00 0.00 0.00 25 1007.9
20260506014537 23 54 0.0 12.9 0.00 0.00 0.00 25 1007.9
20260506014020 23 232 1.6 12.9 0.00 0.00 0.00 25 1007.8
20260506013521 24 0 1.6 12.9 0.00 0.00 0.00 25 1007.9
20260506013038 24 0 0.0 20.9 0.00 0.00 0.00 24 1007.9
20260506012521 24 19 1.6 20.9 0.00 0.00 0.00 24 1007.8
20260506012020 24 288 1.6 12.9 0.00 0.00 0.00 25 1007.8
20260506011542 24 0 1.6 17.7 0.00 0.00 0.00 24 1007.7
20260506011023 24 71 3.2 17.7 0.00 0.00 0.00 24 1007.7
20260506010524 25 0 1.6 9.7 0.00 0.00 0.00 24 1007.7
20260506010054 25 0 0.0 14.5 0.00 0.00 0.00 24 1007.7
20260506005522 25 0 0.0 14.5 0.00 0.00 0.00 24 1007.6
20260506005025 25 0 0.0 17.7 0.00 0.00 0.00 25 1007.7
20260506004541 25 0 0.0 17.7 0.00 0.00 0.00 24 1007.6
20260506004022 25 344 3.2 16.1 0.00 0.00 0.00 23 1007.6
20260506003522 25 329 3.2 14.5 0.00 0.00 0.00 23 1007.6
20260506003041 25 273 0.0 19.3 0.00 0.00 0.00 23 1007.6
20260506002521 25 0 1.6 19.3 0.00 0.00 0.00 23 1007.6
20260506002020 25 339 1.6 16.1 0.00 0.00 0.00 24 1007.6
20260506001538 25 305 0.0 14.5 0.00 0.00 0.00 23 1007.5
20260506001023 26 0 1.6 14.5 0.00 0.00 0.00 23 1007.6
20260506000520 26 283 3.2 17.7 0.00 0.00 0.00 22 1007.6
20260506000037 26 232 1.6 17.7 0.00 0.00 0.00 22 1007.6
20260505235522 26 0 4.8 17.7 0.00 0.00 0.00 22 1007.7
20260505235021 26 130 3.2 16.1 0.00 0.00 0.00 23 1007.6
20260505234537 26 339 3.2 16.1 0.00 0.00 0.00 22 1007.6
20260505234020 26 0 1.6 19.3 0.00 0.00 0.00 22 1007.8
20260505233519 26 331 3.2 19.3 0.00 0.00 0.00 22 1007.7
20260505233045 26 261 0.0 19.3 0.00 0.00 0.00 23 1007.8
20260505232519 26 0 1.6 19.3 0.00 0.00 0.00 23 1007.8
20260505232020 26 0 3.2 17.7 0.00 0.00 0.00 23 1007.8
20260505231541 27 311 0.0 17.7 0.00 0.00 0.00 23 1007.8
20260505231018 26 14 4.8 19.3 0.00 0.00 0.00 23 1007.8
20260505230520 26 0 4.8 19.3 0.00 0.00 0.00 24 1007.8
20260505230051 26 360 1.6 19.3 0.00 0.00 0.00 24 1007.9
20260505225520 27 295 1.6 20.9 0.00 0.00 0.00 25 1007.9
20260505225020 26 0 0.0 20.9 0.00 0.00 0.00 24 1007.9
20260505224543 26 319 8.0 20.9 0.00 0.00 0.00 24 1008.0
20260505224019 27 306 4.8 16.1 0.00 0.00 0.00 24 1008.1
20260505223519 27 360 1.6 19.3 0.00 0.00 0.00 23 1007.9
20260505223039 26 304 4.8 19.3 0.00 0.00 0.00 24 1008.0
20260505222518 27 344 4.8 19.3 0.00 0.00 0.00 21 1008.0
20260505222021 26 314 1.6 22.5 0.00 0.00 0.00 23 1008.1
20260505221537 26 0 1.6 22.5 0.00 0.00 0.00 22 1008.2
20260505221020 26 323 0.0 17.7 0.00 0.00 0.00 23 1008.1
20260505220519 26 303 1.6 17.7 0.00 0.00 0.00 24 1008.3
20260505220036 26 0 0.0 9.7 0.00 0.00 0.00 25 1008.5
20260505215518 26 0 0.0 17.7 0.00 0.00 0.00 25 1008.6
20260505215019 26 113 1.6 17.7 0.00 0.00 0.00 27 1008.6
20260505214541 26 0 0.0 14.5 0.00 0.00 0.00 30 1008.8
20260505214019 26 0 0.0 14.5 0.00 0.00 0.00 30 1008.8
20260505213516 26 272 0.0 6.4 0.00 0.00 0.00 32 1008.9
20260505213040 25 0 0.0 11.3 0.00 0.00 0.00 29 1008.9
20260505212521 25 0 0.0 20.9 0.00 0.00 0.00 28 1009.0
20260505212021 25 34 1.6 20.9 0.00 0.00 0.00 30 1009.2
20260505211540 26 338 3.2 17.7 0.00 0.00 0.00 30 1009.4
20260505211021 25 0 0.0 14.5 0.00 0.00 0.00 29 1009.2
20260505210520 25 0 0.0 16.1 0.00 0.00 0.00 28 1009.4
20260505210036 25 0 1.6 16.1 0.00 0.00 0.00 28 1009.5
20260505205522 25 0 3.2 16.1 0.00 0.00 0.00 30 1009.4
20260505205020 26 0 0.0 6.4 0.00 0.00 0.00 30 1009.5
20260505204536 25 0 0.0 11.3 0.00 0.00 0.00 29 1009.5
20260505204018 25 328 0.0 11.3 0.00 0.00 0.00 30 1009.5
20260505203519 25 0 0.0 9.7 0.00 0.00 0.00 29 1009.6
20260505203043 25 0 0.0 4.8 0.00 0.00 0.00 30 1009.6
20260505202521 25 0 0.0 8.0 0.00 0.00 0.00 29 1009.6
20260505202020 25 0 0.0 8.0 0.00 0.00 0.00 30 1009.7
20260505201550 25 0 0.0 8.0 0.00 0.00 0.00 32 1009.7
20260505201021 25 0 0.0 8.0 0.00 0.00 0.00 31 1009.8
20260505200520 25 207 0.0 6.4 0.00 0.00 0.00 30 1009.9
20260505200041 25 0 0.0 3.2 0.00 0.00 0.00 31 1009.9
20260505195519 24 0 0.0 11.3 0.00 0.00 0.00 33 1009.9
20260505195019 24 0 1.6 11.3 0.00 0.00 0.00 31 1010.0
20260505194537 24 0 0.0 9.7 0.00 0.00 0.00 30 1009.9
20260505194022 24 0 0.0 1.6 0.00 0.00 0.00 29 1010.1
20260505193520 24 0 0.0 8.0 0.00 0.00 0.00 30 1010.0
20260505193036 24 0 0.0 8.0 0.00 0.00 0.00 29 1010.1
20260505192523 24 0 0.0 1.6 0.00 0.00 0.00 30 1010.1
20260505192020 23 0 0.0 3.2 0.00 0.00 0.00 32 1010.1
20260505191537 23 0 0.0 6.4 0.00 0.00 0.00 32 1010.2
20260505191020 23 248 0.0 11.3 0.00 0.00 0.00 30 1010.2
20260505190522 23 251 0.0 11.3 0.00 0.00 0.00 30 1010.2
20260505190050 23 0 0.0 3.2 0.00 0.00 0.00 29 1010.3
20260505185520 23 0 0.0 4.8 0.00 0.00 0.00 30 1010.3
20260505185020 22 0 0.0 8.0 0.00 0.00 0.00 33 1010.4
20260505184544 22 0 0.0 8.0 0.00 0.00 0.00 32 1010.4
20260505184018 22 0 1.6 9.7 0.00 0.00 0.00 30 1010.5
20260505183519 22 0 0.0 9.7 0.00 0.00 0.00 31 1010.5
20260505183055 22 0 0.0 3.2 0.00 0.00 0.00 34 1010.6
20260505182520 22 0 0.0 6.4 0.00 0.00 0.00 32 1010.7
20260505182019 22 0 0.0 6.4 0.00 0.00 0.00 34 1010.7
20260505181535 22 0 0.0 4.8 0.00 0.00 0.00 33 1010.7
20260505181019 22 0 0.0 4.8 0.00 0.00 0.00 34 1010.6
20260505180519 22 0 0.0 3.2 0.00 0.00 0.00 32 1010.7
20260505180045 22 0 0.0 1.6 0.00 0.00 0.00 32 1010.8
20260505175520 22 0 0.0 1.6 0.00 0.00 0.00 34 1010.8
20260505175023 22 0 0.0 4.8 0.00 0.00 0.00 32 1010.8
20260505174543 22 0 0.0 4.8 0.00 0.00 0.00 33 1010.8
20260505174023 22 0 0.0 6.4 0.00 0.00 0.00 34 1010.9
20260505173519 21 0 0.0 6.4 0.00 0.00 0.00 32 1010.9
20260505173049 21 0 0.0 8.0 0.00 0.00 0.00 32 1010.9
20260505172522 21 0 0.0 8.0 0.00 0.00 0.00 34 1010.9
20260505172025 21 0 0.0 4.8 0.00 0.00 0.00 31 1010.9
20260505171545 21 200 0.0 4.8 0.00 0.00 0.00 33 1010.8
20260505171023 21 198 0.0 6.4 0.00 0.00 0.00 33 1010.8
20260505170520 21 0 0.0 8.0 0.00 0.00 0.00 33 1010.8
20260505170038 21 0 0.0 8.0 0.00 0.00 0.00 33 1010.7
20260505165525 21 156 0.0 11.3 0.00 0.00 0.00 33 1010.6
20260505165022 21 0 0.0 11.3 0.00 0.00 0.00 33 1010.6
20260505164537 21 0 0.0 6.4 0.00 0.00 0.00 35 1010.6
20260505164022 21 217 0.0 8.0 0.00 0.00 0.00 34 1010.6
20260505163521 20 0 0.0 8.0 0.00 0.00 0.00 36 1010.6
20260505163042 20 0 0.0 11.3 0.00 0.00 0.00 36 1010.6
20260505162524 20 0 0.0 11.3 0.00 0.00 0.00 36 1010.5
20260505162020 20 0 0.0 12.9 0.00 0.00 0.00 36 1010.5
20260505161546 20 0 0.0 12.9 0.00 0.00 0.00 37 1010.4
20260505161023 19 0 0.0 8.0 0.00 0.00 0.00 37 1010.3
20260505160525 19 0 0.0 8.0 0.00 0.00 0.00 38 1010.3
20260505153037 17 0 1.6 14.5 0.00 0.00 0.00 42 1009.7
20260505152523 17 244 1.6 14.5 0.00 0.00 0.00 44 1009.8
20260505152021 17 0 0.0 12.9 0.00 0.00 0.00 50 1009.8
20260505151538 16 242 1.6 14.5 0.00 0.00 0.00 51 1009.8
20260505151022 16 0 1.6 14.5 0.00 0.00 0.00 52 1009.8
20260505150522 15 0 0.0 6.4 0.00 0.00 0.00 55 1009.9
20260505140518 12 142 0.0 4.8 0.00 0.00 0.00 65 1009.3
20260505125019 9 0 0.0 0.0 0.00 0.00 0.00 74 1008.1
20260505124539 10 0 0.0 0.0 0.00 0.00 0.00 73 1008.0
20260505124020 10 0 0.0 0.0 0.00 0.00 0.00 72 1008.0
20260505123520 10 0 0.0 0.0 0.00 0.00 0.00 72 1008.1
20260505123036 10 0 0.0 0.0 0.00 0.00 0.00 71 1008.0
20260505122520 10 0 0.0 0.0 0.00 0.00 0.00 70 1007.8
20260505122021 10 0 0.0 0.0 0.00 0.00 0.00 68 1007.7
20260505121539 10 0 0.0 0.0 0.00 0.00 0.00 67 1007.6
20260505121020 10 0 0.0 0.0 0.00 0.00 0.00 67 1007.4
20260505120520 11 0 0.0 0.0 0.00 0.00 0.00 66 1007.3
20260505120059 11 0 0.0 0.0 0.00 0.00 0.00 65 1007.2
20260505115523 11 0 0.0 0.0 0.00 0.00 0.00 64 1007.3
20260505115019 11 0 0.0 0.0 0.00 0.00 0.00 64 1007.1
20260505114538 11 0 0.0 0.0 0.00 0.00 0.00 63 1007.1
20260505114019 11 0 0.0 0.0 0.00 0.00 0.00 62 1007.1
20260505113520 11 0 0.0 0.0 0.00 0.00 0.00 62 1006.9
20260505113043 11 0 0.0 0.0 0.00 0.00 0.00 62 1006.9
20260505112524 11 0 0.0 0.0 0.00 0.00 0.00 61 1006.8
20260505112019 12 0 0.0 0.0 0.00 0.00 0.00 61 1006.8
20260505111538 12 0 0.0 0.0 0.00 0.00 0.00 60 1006.6
20260505111019 12 0 0.0 0.0 0.00 0.00 0.00 61 1006.5
20260505110521 12 0 0.0 0.0 0.00 0.00 0.00 57 1006.4
20260505102021 14 0 0.0 1.6 0.00 0.00 0.00 51 1005.9
20260505101540 14 0 0.0 6.4 0.00 0.00 0.00 51 1005.8
20260505101019 14 0 0.0 6.4 0.00 0.00 0.00 51 1005.8
20260505100522 14 0 0.0 0.0 0.00 0.00 0.00 50 1005.7
20260505100041 15 0 0.0 0.0 0.00 0.00 0.00 49 1005.6
20260505095520 15 0 0.0 1.6 0.00 0.00 0.00 49 1005.7
20260505095024 15 0 0.0 6.4 0.00 0.00 0.00 48 1005.6
20260505094536 15 0 0.0 8.0 0.00 0.00 0.00 48 1005.6
20260505094020 15 306 0.0 8.0 0.00 0.00 0.00 48 1005.6
20260505093520 15 0 0.0 4.8 0.00 0.00 0.00 48 1005.5
20260505093041 15 0 0.0 0.0 0.00 0.00 0.00 48 1005.5
20260505092519 15 0 0.0 0.0 0.00 0.00 0.00 47 1005.4
20260505092018 15 0 0.0 0.0 0.00 0.00 0.00 47 1005.4
20260505091543 15 0 0.0 0.0 0.00 0.00 0.00 47 1005.4
20260505091017 15 0 0.0 0.0 0.00 0.00 0.00 46 1005.2
20260505090520 15 0 0.0 0.0 0.00 0.00 0.00 46 1005.1
20260505090045 15 0 0.0 0.0 0.00 0.00 0.00 45 1005.2
20260505085522 16 0 0.0 0.0 0.00 0.00 0.00 44 1005.1
20260505085020 16 0 0.0 3.2 0.00 0.00 0.00 44 1005.1
20260505084541 16 0 0.0 4.8 0.00 0.00 0.00 43 1005.2
20260505084024 16 0 0.0 14.5 0.00 0.00 0.00 43 1005.1
20260505083519 16 308 0.0 14.5 0.00 0.00 0.00 43 1005.1
20260505083041 16 315 0.0 6.4 0.00 0.00 0.00 43 1004.9
20260505082520 16 0 1.6 6.4 0.00 0.00 0.00 43 1005.0
20260505082019 16 0 0.0 3.2 0.00 0.00 0.00 42 1004.9
20260505081540 16 0 0.0 11.3 0.00 0.00 0.00 42 1005.0
20260505081021 17 0 0.0 11.3 0.00 0.00 0.00 42 1005.0
20260505080523 17 0 0.0 8.0 0.00 0.00 0.00 41 1005.0
20260505080039 17 0 0.0 6.4 0.00 0.00 0.00 41 1004.9
20260505075520 17 0 0.0 4.8 0.00 0.00 0.00 41 1005.0
20260505075020 17 0 0.0 4.8 0.00 0.00 0.00 41 1005.0
20260505074542 17 0 0.0 4.8 0.00 0.00 0.00 41 1005.0
20260505074022 17 0 0.0 4.8 0.00 0.00 0.00 41 1005.0
20260505073519 17 0 0.0 12.9 0.00 0.00 0.00 40 1005.0
20260505073057 17 0 0.0 12.9 0.00 0.00 0.00 40 1005.0
20260505072523 17 0 1.6 12.9 0.00 0.00 0.00 40 1004.8
20260505072022 17 0 0.0 12.9 0.00 0.00 0.00 39 1004.9
20260505071540 18 322 0.0 12.9 0.00 0.00 0.00 39 1004.8
20260505071023 18 293 0.0 9.7 0.00 0.00 0.00 39 1004.8
20260505070521 18 325 1.6 11.3 0.00 0.00 0.00 39 1004.8
20260505070040 18 312 0.0 11.3 0.00 0.00 0.00 39 1004.7
20260505065522 18 0 0.0 8.0 0.00 0.00 0.00 39 1004.7
20260505065022 18 0 0.0 8.0 0.00 0.00 0.00 39 1004.7
20260505064542 18 313 1.6 8.0 0.00 0.00 0.00 39 1004.6
20260505064022 18 0 0.0 3.2 0.00 0.00 0.00 39 1004.6
20260505063521 18 0 0.0 1.6 0.00 0.00 0.00 38 1004.5
20260505063037 18 0 0.0 9.7 0.00 0.00 0.00 38 1004.5
20260505062522 18 0 0.0 9.7 0.00 0.00 0.00 37 1004.5
20260505062024 19 0 0.0 9.7 0.00 0.00 0.00 37 1004.6
20260505061550 19 0 1.6 9.7 0.00 0.00 0.00 36 1004.5
20260505061022 19 308 0.0 8.0 0.00 0.00 0.00 36 1004.4
20260505060520 19 352 0.0 8.0 0.00 0.00 0.00 36 1004.5
20260505060042 19 0 0.0 12.9 0.00 0.00 0.00 36 1004.4
20260505055522 19 0 1.6 12.9 0.00 0.00 0.00 36 1004.3
20260505055022 19 0 0.0 16.1 0.00 0.00 0.00 36 1004.3
20260505054601 19 121 3.2 16.1 0.00 0.00 0.00 35 1004.2
20260505054019 19 0 1.6 11.3 0.00 0.00 0.00 35 1004.2
20260505053520 19 0 0.0 6.4 0.00 0.00 0.00 35 1004.2
20260505053048 19 0 0.0 6.4 0.00 0.00 0.00 35 1004.2
20260505052522 19 0 0.0 6.4 0.00 0.00 0.00 35 1004.1
20260505052023 19 0 0.0 6.4 0.00 0.00 0.00 35 1004.2
20260505051540 19 351 0.0 8.0 0.00 0.00 0.00 35 1004.2
20260505051026 20 0 0.0 8.0 0.00 0.00 0.00 35 1004.3
20260505050522 20 0 0.0 8.0 0.00 0.00 0.00 35 1004.3
20260505041538 20 0 0.0 6.4 0.00 0.00 0.00 37 1004.1
20260505041020 20 308 1.6 6.4 0.00 0.00 0.00 36 1004.0
20260505040519 20 0 0.0 0.0 0.00 0.00 0.00 35 1004.0
20260505040037 21 0 0.0 0.0 0.00 0.00 0.00 35 1004.0